This demonstration page uses our WeatherBlox Daily Observations layout. Learn more.

Left ArrowRight Arrow

44.8408, -93.29828

Hourly Observations for September 24, 2022

Temp ( °F °C ) Dew Point ( °F °C ) Humidity (%) Winds ( mph kmh ) Pressure ( in mb ) Visibility ( mi km ) Precip ( " mm )
12:10 am 00:10 Cloudy 53 11.7 51 10.6 93 93 SSE 8 13 29.90 1012 10 16 0.00 0.00
12:53 am 00:53 Cloudy 54 12.2 51 10.6 90 90 S 9 15 29.88 1012 10 16 0.00 0.00
1:53 am 01:53 Cloudy 54 12.2 51 10.6 90 90 SSW 9 15 29.86 1011 10 16 0.00 0.00
2:53 am 02:53 Cloudy 54 12.2 51 10.6 90 90 S 8 13 29.85 1011 10 16 0.00 0.00
3:53 am 03:53 Cloudy 55 12.8 51 10.6 86 86 S 9 15 29.83 1010 10 16 0.00 0.00
4:53 am 04:53 Cloudy 55 12.8 51 10.6 86 86 S 8 13 29.83 1010 10 16 0.00 0.00
5:53 am 05:53 Cloudy 55 12.8 52 11.1 89 89 S 6 9 29.83 1010 10 16 0.00 0.00
6:18 am 06:18 Cloudy 55 12.8 52 11.1 89 89 S 6 9 29.82 1010 10 16 0.00 0.00
6:32 am 06:32 Cloudy 55 12.8 52 11.1 89 89 S 5 7 29.82 1010 10 16 0.00 0.00
6:53 am 06:53 Cloudy 56 13.3 52 11.1 87 87 S 5 7 29.82 1010 10 16 0.00 0.00
7:53 am 07:53 Cloudy 56 13.3 53 11.7 90 90 S 5 7 29.82 1010 10 16 0.00 0.00
8:53 am 08:53 Cloudy 56 13.3 53 11.7 90 90 S 5 7 29.82 1010 10 16 0.00 0.00
9:53 am 09:53 Cloudy 58 14.4 52 11.1 81 81 SW 7 11 29.82 1010 10 16 0.00 0.00
10:53 am 10:53 Mostly Cloudy 60 15.6 53 11.7 78 78 SSW 6 9 29.81 1010 10 16 0.00 0.00
11:05 am 11:05 Mostly Cloudy 61 16.1 53 11.7 75 75 SW 6 9 29.80 1009 10 16 0.00 0.00
11:35 am 11:35 Mostly Cloudy 63 17.2 53 11.7 70 70 S 8 13 29.79 1009 10 16 0.00 0.00
11:53 am 11:53 Partly Cloudy 64 17.8 53 11.7 67 67 SW 5 7 29.80 1009 10 16 0.00 0.00
12:53 pm 12:53 Mostly Cloudy 66 18.9 52 11.1 61 61 WSW 7 11 29.78 1008 10 16 0.00 0.00
1:53 pm 13:53 Cloudy 67 19.4 53 11.7 61 61 W 3 6 29.76 1008 10 16 0.00 0.00
2:53 pm 14:53 Cloudy 68 20 53 11.7 59 59 Calm 29.74 1007 10 16 0.00 0.00
3:53 pm 15:53 Cloudy 64 17.8 53 11.7 67 67 WNW 21 33 29.77 1008 10 16 0.01 0.13
4:53 pm 16:53 Cloudy 60 15.6 52 11.1 75 75 W 13 20 29.78 1009 10 16 0.00 0.00
5:53 pm 17:53 Cloudy with Light Rain 60 15.6 53 11.7 78 78 WNW 22 35 29.79 1009 7 11 0.01 0.13
6:53 pm 18:53 Cloudy with Light Rain 57 13.9 54 12.2 89 89 NW 10 17 29.81 1010 8 13 0.01 0.13
7:03 pm 19:03 Cloudy with Light Rain 57 13.9 54 12.2 89 89 WNW 12 19 29.81 1009 8 13 0.01 0.13
7:14 pm 19:14 Cloudy 57 13.9 54 12.2 89 89 NW 12 19 29.81 1009 10 16 0.01 0.13
7:22 pm 19:22 Cloudy 57 13.9 54 12.2 89 89 NW 9 15 29.81 1009 10 16 0.01 0.13
7:53 pm 19:53 Cloudy 58 14.4 53 11.7 84 84 NW 13 20 29.82 1010 9 14 0.01 0.13
8:53 pm 20:53 Cloudy 58 14.4 52 11.1 81 81 NW 14 22 29.83 1010 10 16 0.00 0.00
9:53 pm 21:53 Cloudy 59 15 51 10.6 75 75 NW 12 19 29.84 1011 10 16 0.00 0.00
10:53 pm 22:53 Mostly Cloudy 57 13.9 51 10.6 80 80 NW 8 13 29.84 1011 10 16 0.00 0.00
11:53 pm 23:53 Mostly Clear 56 13.3 50 10 80 80 WNW 8 13 29.84 1011 10 16 0.00 0.00

Powered by AerisWeather